This demonstration page uses our WeatherBlox Daily Observations layout. Learn more.

Left ArrowRight Arrow

Hourly Observations for April 3, 2015

Temp ( °F °C ) Dew Point ( °F °C ) Humidity (%) Winds ( mph kmh ) Pressure ( in mb ) Visibility ( mi km ) Precip ( " mm )
12:50 am 00:50 Cloudy with Rain 39 4 36 2 87 87 N 24 39 30.15 1021 6 10 0.00 0.00
12:53 am 00:53 Cloudy with Rain 40 4.4 35 1.7 83 83 N 23 37 30.12 1020 6 10 0.03 0.76
1:53 am 01:53 Cloudy with Light Rain 39 3.9 35 1.7 86 86 N 20 31 30.10 1019 10 16 0.02 0.51
2:00 am 02:00 Cloudy 39 3.9 35 1.7 86 86 NNE 20 31 30.15 1021 10 16 0.00 0.03
2:42 am 02:42 Cloudy with Light Rain 37 3 34 1 87 87 NNE 10 17 30.18 1022 10 16 0.00 0.00
2:50 am 02:50 Cloudy with Light Rain 37 3 34 1 87 87 N 9 15 30.21 1023 10 16 0.00 0.00
2:53 am 02:53 Cloudy 38 3.3 34 1.1 86 86 N 7 11 30.15 1021 10 16 0.01 0.25
3:53 am 03:53 Cloudy 38 3.3 35 1.7 89 89 NNW 6 9 30.15 1021 10 16 0.00 0.00
4:53 am 04:53 Cloudy 36 2.2 27 -2.8 70 70 N 20 31 30.18 1022 10 16 0.00 0.00
5:53 am 05:53 Mostly Clear 34 1.1 25 -3.9 70 70 NNW 17 28 30.22 1023 10 16 0.00 0.00
6:53 am 06:53 Clear 33 0.6 24 -4.4 70 70 N 17 28 30.24 1024 10 16 0.00 0.00
7:53 am 07:53 Sunny 32 0 23 -5 69 69 NNW 17 28 30.27 1025 10 16 0.00 0.00
8:53 am 08:53 Sunny 33 0.6 23 -5 66 66 NNW 20 31 30.29 1026 10 16 0.00 0.00
9:53 am 09:53 Sunny 35 1.7 23 -5 61 61 NNW 22 35 30.32 1027 10 16 0.00 0.00
10:53 am 10:53 Mostly Sunny 36 2.2 24 -4.4 62 62 N 20 31 30.35 1028 10 16 0.00 0.00
11:09 am 11:09 Mostly Cloudy 36 2.2 24 -4.4 62 62 NNW 22 35 30.39 1029 10 16 0.00 0.00
11:21 am 11:21 Partly Cloudy 37 2.8 23 -5 57 57 N 17 28 30.39 1029 10 16 0.00 0.00
11:29 am 11:29 Mostly Cloudy 37 2.8 24 -4.4 59 59 NNW 21 33 30.39 1029 10 16 0.00 0.00
11:39 am 11:39 Partly Cloudy 39 3.9 25 -3.9 57 57 NNW 22 35 30.39 1029 10 16 0.00 0.00
11:51 am 11:51 Mostly Cloudy 39 4 25 -4 56 56 NNW 21 33 30.39 1029 10 16 0.00 0.00
11:53 am 11:53 Mostly Cloudy 40 4.4 25 -3.9 55 55 NNW 23 37 30.36 1028 10 16 0.00 0.00
12:01 pm 12:01 Partly Cloudy 41 5 25 -3.9 53 53 NNW 18 30 30.39 1029 10 16 0.00 0.00
12:53 pm 12:53 Sunny 43 6.1 24 -4.4 47 47 N 18 30 30.36 1028 10 16 0.00 0.00
1:53 pm 13:53 Sunny 46 7.8 23 -5 40 40 NNW 18 30 30.35 1028 10 16 0.00 0.00
2:53 pm 14:53 Sunny 48 8.9 19 -7.2 32 32 NNW 20 31 30.34 1028 10 16 0.00 0.00
3:53 pm 15:53 Sunny 51 10.6 18 -7.8 27 27 NNW 14 22 30.32 1027 10 16 0.00 0.00
4:53 pm 16:53 Sunny 52 11.1 15 -9.4 23 23 NNW 15 24 30.30 1026 10 16 0.00 0.00
5:53 pm 17:53 Sunny 52 11.1 12 -11.1 20 20 NNW 14 22 30.31 1026 10 16 0.00 0.00
6:53 pm 18:53 Sunny 51 10.6 13 -10.6 22 22 NW 10 17 30.32 1027 10 16 0.00 0.00
7:53 pm 19:53 Sunny 47 8.3 14 -10 26 26 Calm 30.32 1027 10 16 0.00 0.00
8:53 pm 20:53 Clear 45 7.2 13 -10.6 27 27 S 5 7 30.33 1027 10 16 0.00 0.00
9:53 pm 21:53 Clear 42 5.6 14 -10 32 32 S 6 9 30.34 1028 10 16 0.00 0.00
10:53 pm 22:53 Clear 39 3.9 17 -8.3 41 41 S 7 11 30.34 1028 10 16 0.00 0.00
11:53 pm 23:53 Clear 38 3.3 18 -7.8 44 44 S 8 13 30.33 1027 10 16 0.00 0.00

Powered by AerisWeather